#timestamp,LO_Frequency,Hit,StdDev 
1689930015.0,286046998.5,N
1689930015.9,286046998.5,N
1689930035.8,286046998.5,N
1689930055.6,286046998.2,N
1689930075.4,286046998.5,N
1689930095.3,286046998.9,N
1689930115.1,286047001.1,N
1689930135.8,286046998.5,N
1689930155.7,286047001.2,N
1689930175.5,286046998.5,N
1689930195.4,286046998.4,N
1689930215.2,286046999.3,N
1689930235.0,286046998.7,N
1689930235.9,286046998.7,N
1689930255.8,286046999.1,N
1689930275.6,286046997.0,N
1689930295.4,286046997.2,N
1689930315.3,286046997.0,N
1689930335.1,286046999.5,N
1689930355.9,286046997.0,N
1689930375.7,286046996.5,N
1689930395.5,286046996.6,N
1689930415.4,286046997.8,N
1689930435.2,286046996.7,N
1689930455.1,286046996.8,N
1689930456.0,286046996.8,N
1689930475.8,286046997.4,N
1689930495.6,286046996.8,N
1689930515.5,286046997.4,N
1689930535.3,286046997.0,N
1689930555.2,286046997.4,N
1689930575.9,286046997.2,N
1689930595.7,286046996.6,N
1689930615.6,286046997.0,N
1689930635.4,286046996.7,N
1689930655.2,286046999.2,N
1689930675.1,286046996.7,N
1689930676.0,286046996.7,N
1689930695.4,286046997.7,N
1689930715.3,286046996.9,Y
1689930735.1,286047002.5,P
1689930755.8,286046999.7,N
1689930775.7,286046999.7,N
1689930795.5,286047002.7,N
1689930815.4,286047002.7,N
1689930835.2,286046999.9,N
1689930855.0,286047000.4,N
1689930855.9,286047000.4,N
1689930875.8,286047000.0,N
1689930895.6,286047000.9,N
1689930915.4,286047000.3,N
1689930935.3,286046999.8,N
1689930955.1,286047002.7,N
1689930975.9,286047002.8,N
1689930995.7,286047002.8,N
1689931015.5,286046999.7,N
1689931035.4,286046999.7,N
1689931055.2,286047002.1,N
1689931075.0,286047002.7,N
1689931075.9,286047002.7,N
1689931095.8,286046999.7,N
1689931115.6,286047002.6,N
1689931135.5,286047002.8,N
1689931155.3,286046999.8,N
1689931175.1,286047002.6,N
1689931195.9,286047002.5,N
1689931215.7,286047002.6,N
1689931235.6,286047002.4,N
1689931255.4,286047002.0,N
1689931275.2,286047002.3,N
1689931295.1,286047001.9,N
1689931296.0,286047001.9,N
1689931315.8,286047002.5,N
1689931335.7,286047001.4,N
1689931355.5,286047002.0,N
1689931375.3,286047004.4,Y
1689931395.2,286047001.6,P
1689931415.0,286047001.6,P
1689931415.9,286047001.6,P
1689931435.8,286047001.5,Y
1689931455.6,286046999.8,P
1689931475.4,286047000.2,N
1689931495.3,286046999.9,N
1689931515.1,286047001.2,N
1689931535.8,286046998.5,N
1689931555.7,286046998.6,N
1689931575.5,286046998.1,N
1689931595.4,286046998.7,N
1689931615.2,286046998.7,N
1689931635.0,286046998.4,N
1689931635.9,286046998.4,N
1689931655.8,286047000.3,N
1689931675.6,286047000.0,N
1689931695.4,286046999.8,N
1689931715.3,286047000.0,N
1689931735.1,286047000.3,N
1689931755.9,286046999.9,N
1689931775.7,286046999.8,N
1689931795.5,286046999.9,N
1689931815.4,286047000.0,N
1689931835.2,286046999.9,N
1689931855.0,286047000.3,N
1689931855.9,286047000.3,N
1689931875.8,286047000.4,N
1689931895.6,286046999.8,N
1689931915.5,286047000.6,N
1689931935.3,286047000.3,N
1689931955.1,286047000.3,N
1689931975.9,286047001.0,N
1689931995.7,286047002.3,N
1689932015.6,286047002.4,N
1689932035.4,286047000.2,N
1689932055.2,286047002.8,N
1689932075.1,286047001.6,N
1689932076.0,286047001.6,N
1689932095.8,286047001.9,N
1689932115.7,286047001.9,N
1689932135.5,286047004.0,Y
1689932155.3,286047002.6,P
1689932175.2,286047002.7,N
1689932195.0,286047002.7,N
1689932195.9,286047002.7,N
1689932215.8,286047000.2,N
1689932235.6,286047002.6,N
1689932255.4,286047000.1,N
1689932275.3,286047000.4,N
1689932295.1,286046999.9,N
1689932315.8,286047002.6,N
1689932335.7,286047002.2,N
1689932355.5,286047002.7,N
1689932375.4,286047000.4,N
1689932395.2,286047002.3,N
1689932415.0,286047002.3,N
1689932415.9,286047002.3,N
1689932435.8,286047000.3,N
1689932455.6,286046999.8,N
1689932475.4,286047002.4,N
1689932495.3,286047002.7,N
1689932515.1,286047002.1,N
1689932535.9,286047001.6,N
1689932555.7,286047002.2,N
1689932575.5,286047002.6,N
1689932595.4,286047002.5,N
1689932615.2,286047001.6,N
1689932635.0,286047001.9,N
1689932635.9,286047001.9,N
1689932655.8,286047002.5,N
1689932675.6,286047002.1,N
1689932695.5,286047002.6,N
1689932715.3,286047002.2,N
1689932735.1,286047001.9,N
1689932755.9,286047001.6,N
1689932775.7,286047001.6,N
1689932795.5,286047002.3,N
1689932815.4,286047002.4,N
1689932835.2,286047001.8,N
1689932855.1,286047002.5,Y
1689932856.0,286047002.5,P
1689932875.8,286047000.7,N
1689932895.6,286047000.4,N
1689932915.5,286047000.3,N
1689932935.7,286047001.0,N
1689932955.6,286047000.3,N
1689932975.4,286047002.0,N
1689932995.2,286047002.4,N
1689933015.1,286047002.5,N
1689933016.0,286047002.5,N
1689933035.8,286047002.6,N
1689933055.7,286047002.3,N
1689933075.5,286047002.6,N
1689933095.3,286047002.7,N
1689933115.2,286047002.4,N
1689933135.0,286046999.8,N
1689933135.9,286046999.8,N
1689933155.8,286047000.6,N
1689933175.6,286047000.7,N
1689933195.4,286047000.5,N
1689933215.3,286047000.2,N
1689933235.1,286047002.4,N
1689933255.9,286047000.4,N
1689933275.7,286047001.0,N
1689933295.5,286047000.0,N
1689933315.4,286047000.4,N
1689933335.2,286047001.1,N
1689933355.0,286046998.7,N
1689933355.9,286046998.7,N
1689933375.8,286046998.7,N
1689933395.6,286047001.2,N
1689933415.4,286046998.5,N
1689933435.3,286046998.6,N
1689933455.1,286047000.9,N
1689933475.9,286047000.9,N
1689933495.7,286047001.2,N
1689933515.5,286047000.4,N
1689933535.4,286047011.9,Y
1689933555.2,286047002.3,P
1689933575.1,286047002.7,P
1689933576.0,286047002.7,P
1689933595.8,286047002.5,Y
